This is the latest recevied weather packets stored in our database for station/object K8MUD. If no packets are shown the sender has not sent any weather packets the latest 10 day(s).
| Time | Temp. | Humidity | Pressure | Rain* | Wind** | Luminosity | Snow |
|---|---|---|---|---|---|---|---|
| 1777561283 | 11.11° C | 59% | 1013.6 hPa | 0 mm | - | - | - |
| 1777560983 | 11.11° C | 59% | 1013.6 hPa | 0 mm | - | - | - |
| 1777560683 | 11.11° C | 63% | 1013.4 hPa | 0 mm | - | - | - |
| 1777560383 | 10.56° C | 63% | 1013.5 hPa | 0 mm | - | - | - |
| 1777560083 | 10.56° C | 63% | 1013.4 hPa | 0 mm | - | - | - |
| 1777559783 | 10.56° C | 61% | 1013.4 hPa | 0 mm | - | - | - |
| 1777559483 | 10° C | 62% | 1013.4 hPa | 0 mm | - | - | - |
| 1777559183 | 10° C | 63% | 1013.3 hPa | 0 mm | - | - | - |
| 1777558882 | 10° C | 66% | 1013.4 hPa | 0 mm | - | - | - |
| 1777558582 | 10° C | 68% | 1013.4 hPa | 0 mm | - | - | - |
| 1777558282 | 9.44° C | 66% | 1013.3 hPa | 0 mm | - | - | - |
| 1777557982 | 9.44° C | 69% | 1013.2 hPa | 0 mm | - | - | - |
| 1777557682 | 8.89° C | 69% | 1013.1 hPa | 0 mm | - | - | - |
| 1777557382 | 8.89° C | 71% | 1013.1 hPa | 0 mm | - | - | - |
| 1777557082 | 8.89° C | 71% | 1013.1 hPa | 0 mm | - | - | - |
| 1777556782 | 8.89° C | 71% | 1013.2 hPa | 0 mm | - | - | - |
| 1777556482 | 9.44° C | 72% | 1013.1 hPa | 0 mm | - | - | - |
| 1777556182 | 9.44° C | 75% | 1013.1 hPa | 0 mm | - | - | - |
| 1777555882 | 8.89° C | 76% | 1013.1 hPa | 0 mm | - | - | - |
| 1777555582 | 8.33° C | 76% | 1013.2 hPa | 0 mm | - | - | - |
| 1777555282 | 8.33° C | 79% | 1013.1 hPa | 0 mm | - | - | - |
| 1777554982 | 7.78° C | 77% | 1013.2 hPa | 0 mm | - | - | - |
| 1777554682 | 7.78° C | 78% | 1013.2 hPa | 0 mm | - | - | - |
| 1777554382 | 7.78° C | 80% | 1013.4 hPa | 0 mm | - | - | - |
| 1777554082 | 7.78° C | 81% | 1013.3 hPa | 0 mm | - | - | - |
* Rain latest hour (hover to see other rain measurements)
** Current wind speed in m/s (hover to see current wind gust speed)